カタログに戻る

COSMOS 1275 DEB

運用中PO
NORAD 39947·DEBRIS·🇷🇺 Russia

打ち上げ Jun 4, 1981 から Plesetsk Cosmodrome

Loading…

次のパス (今後24時間)

TLE

最新Source: Space-Track

元期: Sep 13, 2026, 00:22 UTC

1 39947U 81053NH  26256.01537723  .00000633  00000-0  68444-3 0  9999
2 39947  83.0083 267.9374 0116247 356.3220  34.7434 13.68886825610160

AllMySatでCOSMOS 1275 DEBをリアルタイム追跡

Download on the App Store